Home > Weather > Leiden > Past weeks

Flag for Netherlands Weather for the Past 2 Weeks in Leiden, Netherlands

Now
48 °F

Partly cloudy.


Feels Like: 45 °F
Forecast: 44 / 57 °F
Wind: 7 mph from West

Location: Rotterdam Zestienhoven Airport

Current Time: May 3, 2016 at 6:15:36 AM

Latest Report: May 3, 2016 at 5:25 AM


Visibility: N/A

Pressure: 30.09 "Hg

Humidity: 94%

Dew Point: 46 °F

Location of LeidenLocation

Historic Weather in Leiden — Graph

°F

Leiden Temperature Yesterday

Maximum temperature yesterday: 61 °F (at 1:55 PM)
Minimum temperature yesterday: 37 °F (at 2:55 AM)
Average temperature yesterday: 52 °F

High & Low Weather Summary for the Past Weeks

 TemperatureHumidityPressure
High61 °F (Apr 21, 3:55 PM)100% (Apr 20, 1:55 AM)30.48 "Hg (Apr 20, 1:55 AM)
Low34 °F (Apr 25, 2:25 AM)42% (May 2, 12:25 PM)29.47 "Hg (Apr 26, 5:55 AM)
Average46 °F74%30.05 "Hg
* Reported Apr 18 4:25 AM — May 3 4:25 AM, Leiden, Weather by CustomWeather, © 2016

Note: Actual official high and low records may vary slightly from our data, if they occured in-between our weather recording intervals... More about our weather records

Advertising

Leiden Weather History for the Previous 24 Hours

Scroll right to see more
 ConditionsComfort  
Time TempWeatherWind HumidityBarometerVisibility
4:25 AM
Tue, May 3
46 °FPartly cloudy.5 mph100%30.07 "Hg4 mi
3:55 AM46 °FPassing clouds.6 mph100%30.07 "HgN/A
2:55 AM50 °FPassing clouds.8 mph94%30.07 "HgN/A
2:25 AM50 °FSprinkles. Mostly cloudy.8 mph94%30.07 "Hg6 mi
1:55 AM50 °FLight rain. Mostly cloudy.10 mph94%30.07 "Hg5 mi
1:25 AM54 °FRain showers. Passing clouds.14 mph88%30.04 "Hg5 mi
12:55 AM54 °FLight rain. Passing clouds.17 mph88%30.04 "HgN/A
11:55 PM
Mon, May 2
54 °FPassing clouds.14 mph82%30.07 "HgN/A
11:25 PM55 °FPassing clouds.15 mph82%30.07 "HgN/A
10:55 PM55 °FLight rain. Passing clouds.13 mph82%30.07 "HgN/A
10:25 PM55 °FClear.15 mph77%30.07 "HgN/A
9:55 PM55 °FMostly cloudy.15 mph77%30.09 "HgN/A
9:25 PM55 °FPartly sunny.14 mph82%30.07 "HgN/A
8:55 PM57 °FScattered clouds.13 mph77%30.09 "HgN/A
8:25 PM57 °FScattered clouds.13 mph77%30.09 "HgN/A
7:55 PM57 °FLight rain. Passing clouds.15 mph77%30.09 "HgN/A
7:25 PM57 °FBroken clouds.12 mph77%30.09 "HgN/A
6:55 PM57 °FBroken clouds.14 mph77%30.12 "HgN/A
6:25 PM57 °FMore clouds than sun.9 mph77%30.12 "HgN/A
5:55 PM57 °FPartly sunny.14 mph77%30.12 "HgN/A
5:25 PM57 °FPartly sunny.13 mph77%30.12 "HgN/A
4:55 PM57 °FBroken clouds.13 mph72%30.15 "HgN/A
4:25 PM61 °FPassing clouds.13 mph52%30.15 "HgN/A
3:55 PM61 °FClear.15 mph48%30.15 "HgN/A
3:25 PM61 °FClear.15 mph48%30.15 "HgN/A
2:55 PM61 °FClear.15 mph45%30.18 "HgN/A
2:25 PM61 °FClear.15 mph45%30.18 "HgN/A
1:55 PM61 °FClear.14 mph45%30.18 "HgN/A
1:25 PM59 °FClear.13 mph42%30.21 "HgN/A
12:55 PM59 °FClear.15 mph45%30.21 "HgN/A
12:25 PM59 °FClear.13 mph42%30.21 "HgN/A
11:55 AM59 °FClear.14 mph45%30.21 "HgN/A
11:25 AM57 °FClear.14 mph48%30.24 "HgN/A
10:55 AM57 °FClear.13 mph51%30.24 "HgN/A
10:25 AM55 °FRefreshingly cool.10 mph47%30.24 "HgN/A
9:55 AM54 °FClear.10 mph54%30.24 "HgN/A
9:25 AM52 °FClear.10 mph62%30.24 "HgN/A
8:55 AM50 °FCool.8 mph67%30.27 "HgN/A
8:25 AM48 °FClear.8 mph66%30.27 "HgN/A
6:55 AM41 °FClear.6 mph87%30.27 "HgN/A
Weather by CustomWeather, © 2016

See weather overviewHow to use our weather pages